Regional Weather Roundup
Issued by NWS Wakefield, VA

Home | Current Version | Previous Version | Text Only | Print | Product List | Glossary Off
Versions: 1 2 3 4 5 6 7 8 9 10 11 12 13 14 15 16 17 18 19 20 21 22 23 24 25 26 27

000
ASUS41 KAKQ 221810
RWRAKQ

REGIONAL WEATHER ROUNDUP
NATIONAL WEATHER SERVICE WAKEFIELD VA
200 PM EDT WED OCT 22 2014

Note: "fair" indicates few or no clouds below 12,000 feet with no
significant weather and/or obstructions to visibility. * = Denotes
station may not report precipitation (e.g., rain,snow,etc.),
thunder or fog.

VAZ042-051-052>054-056-221900-
NORTHERN VIRGINIA

CITY           SKY/WX    TMP DP  RH WIND       PRES   REMARKS
WASH NATIONAL  LGT RAIN  56  50  80 N20G26    29.93F
DULLES         RAIN      51  49  92 NW15G24   29.96S FOG
FORT BELVOIR   LGT RAIN  54  50  87 NW15G22   29.94S
QUANTICO       LGT RAIN  55  50  83 N20G29    29.94F
FREDERICKSBRG* LGT RAIN  57  53  86 NW9G20    29.93S
STAFFORD*      LGT RAIN  54  54 100 NW14      29.98S
WARRENTON      DRIZZLE   55  53  93 NW18G24   29.96S
CULPEPER*      LGT RAIN  55  48  76 NW8G22    29.98S
MANASSAS*      NOT AVBL
LEESBURG*      RAIN      54  52  94 N12       29.98S
WINCHESTER     RAIN      54  43  66 NW10G16   30.01S
FRONT ROYAL*   CLOUDY    52  46  82 N8G21     30.00S
LURAY*         CLOUDY    55  46  71 N12G22    30.01S
$$

VAZ048-049-060>072-079>083-221900-
CENTRAL AND SOUTH CENTRAL VIRGINIA...AND NORTH CENTRAL NORTH CAROLINA

CITY           SKY/WX    TMP DP  RH WIND       PRES   REMARKS
RICHMOND       LGT RAIN  56  51  84 NW14      29.91F
CHESTERFIELD*  CLOUDY    55  43  62 NW14G20   29.94S
PETERSBURG*    LGT RAIN  54  52  91 NW9G17    29.93S
HANOVER        CLOUDY    55  52  89 NW7       29.94S
TAPPAHANNOCK*  LGT RAIN  54  50  86 NW9       29.89F
CHARLOTTSVILLE CLOUDY    59  44  57 N14G25    29.98F
ORANGE*        DRIZZLE   57  46  67 NW13G18   29.98S
LOUISA*        CLOUDY    57  46  67 N9G21     29.94S
FARMVILLE*     MOSUNNY   64  45  48 NW7G20    29.94S
CREWE*         CLOUDY    61  45  55 NW15G23   29.94F
FORT PICKETT*  CLOUDY    57  49  75 N7        29.94F
LUNENBURG*     CLOUDY    62  47  59 N8G20     29.94F
SOUTH HILL*    PTSUNNY   64  48  55 N7        29.98F
LAWRENCEVILLE* CLOUDY    55  51  85 NW6       29.93F
ROANOKE RAPIDS LGT RAIN  54  50  87 NW14      29.94S
RALEIGH        MOSUNNY   65  43  44 NW9       29.98F
$$

VAZ088>098-221900-
SOUTHEAST VIRGINIA

CITY           SKY/WX    TMP DP  RH WIND       PRES   REMARKS
NORFOLK        CLOUDY    59  50  72 NW9G25    29.82S
VIRGINIA BEACH CLOUDY    59  53  80 NW22G32   29.79F
NORFOLK NAVAL  CLOUDY    61  51  70 NW24G31   29.84S
WEST POINT*    CLOUDY    56  53  88 NW13G21   29.88S
NEWPORT NEWS   CLOUDY    60  51  72 NW15G29   29.84F
LANGLEY AFB    CLOUDY    58  53  83 NW18G28   29.83S
FORT EUSTIS    CLOUDY    57  57 100 NW14G28   29.84S
WILLIAMSBURG*  SUNNY     57  54  88 NW18G28   29.87R
HR EXEC AP*    CLOUDY    57  52  82 NW13G21   29.87S
FRANKLIN*      CLOUDY    54  52  94 NW13G22   29.89S
WAKEFIELD      LGT RAIN  54  50  86 VRB7G17   29.89S
$$

VAZ020-022-025-037-045-221900-
WEST CENTRAL AND SOUTHWEST VIRGINIA

CITY           SKY/WX    TMP DP  RH WIND       PRES   REMARKS
STAUNTON*      CLOUDY    60  42  52 N16G22    30.02F
HOT SPRINGS VA CLOUDY    46  37  71 NW16G30   30.02F
LYNCHBURG      MOSUNNY   62  41  46 NW10G18   30.00F
DANVILLE       CLOUDY    63  40  42 NW16G22   30.01F
SOUTH BOSTON*  NOT AVBL
MARTINSVILLE   CLOUDY    60  41  50 NW17G23   30.07S
ROANOKE        CLOUDY    56  39  53 NW15G26   30.07S
BLACKSBURG     CLOUDY    52  45  76 NW14      30.10F
DUBLIN*        CLOUDY    51  43  73 NW8G20    30.12F
MARION*        CLOUDY    48  41  76 NW13G18   30.16F
HILLSVILLE*    CLOUDY    48  39  70 NW17G26   30.08F
RICHLANDS*     DRIZZLE   45  43  91 NW9G17    30.17F
WISE*          CLOUDY    43  43 100 N10       30.21S
ABINGDON*      CLOUDY    48  41  75 N8        30.18S
$$

MDZ021>025-VAZ099-100-221900-
SOUTHERN MARYLAND AND THE DELMARVA PENINSULA

CITY           SKY/WX    TMP DP  RH WIND       PRES   REMARKS
PATUXENT RIVER LGT RAIN  55  52  89 NW24      29.84F FOG
BAY BRIDGE APT LGT RAIN  54  54 100 N17G28    29.87S
LEONARDTOWN    CLOUDY    54  50  87 NW8G20    29.87F
DOVER          CLOUDY    57  55  94 N17G24    29.80S
GEORGETOWN     CLOUDY    58  52  80 N14G24    29.79F
EASTON         LGT RAIN  57  57 100 N12G18    29.87F
CAMBRIDGE      CLOUDY    55  52  88 N14G20    29.82F VSB<1/4
SALISBURY      CLOUDY    61  53  75 N16G25    29.78F
OCEAN CITY     RAIN      57  55  93 N12G22    29.74F VSB 1/2
WALLOPS ISLAND PTSUNNY   62  54  74 N13G20    29.76F
ACCOMACK*      CLOUDY    59  52  77 N14G21    29.78S
$$

NCZ012>017-030>032-221900-
EASTERN NORTH CAROLINA

CITY           SKY/WX    TMP DP  RH WIND       PRES   REMARKS
ELIZABETH CITY CLOUDY    59  51  75 NW17G29   29.84F
AHOSKIE*       CLOUDY    56  48  73 NW7G16    29.91S
EDENTON*       CLOUDY    57  50  77 NW12G21   29.87S
CURRITUCK*     CLOUDY    59  50  72 NW9G17    29.82F
KILL DEVIL HLS CLOUDY    58  51  78 W13G23    29.80F
MANTEO         CLOUDY    58  51  79 W14G21    29.82F
CAPE HATTERAS  CLOUDY    59  50  72 NW17G30   29.85F
TARBORO*       CLOUDY    61  48  63 NW10G24   29.94S
GOLDSBORO      PTSUNNY   64  49  58 N14G24    29.93F
WASHINGTON     CLOUDY    58  49  70 NW8       29.91F
GREENVILLE     PTSUNNY   61  46  59 N12G22    29.94S
NEW BERN       CLOUDY    66  47  50 NW16G25   29.92F
WILMINGTON     MOSUNNY   67  45  45 NW12      29.94F
$$

VAZ048-221900-
ELSEWHERE

CITY           SKY/WX    TMP DP  RH WIND       PRES   REMARKS
HARRISBURG PA  CLOUDY    54  48  80 N12G22    29.96F
BALTIMORE      RAIN      54  51  90 NW10      29.91S
ANNAPOLIS      LGT RAIN  56  53  90 NW16      29.88F FOG
ANDREWS AFB    LGT RAIN  54  52  94 NW18G24   29.90F
WILMINGTON DE  RAIN      55  52  89 N15       29.87F
PHILADELPHIA   LGT RAIN  55  51  86 N16G22    29.86F
WILDWOOD NJ*   CLOUDY    61  52  72 N14G20    29.78F
ATLANTIC CITY  CLOUDY    57  53  86 N16G24    29.79S
HENDERSON NC   PTSUNNY   64  42  44 NW12G22   29.96F
GREENSBORO     MOSUNNY   64  40  41 N17G26    30.01F
ROCKY MOUNT    CLOUDY    62  46  55 N16G26    29.95F
FAYETTEVILLE   SUNNY     68  42  38 NW13      29.97F
CHARLOTTE      MOSUNNY   65  36  34 NW12G17   30.07F
$$

VAZ100-221900-
MARINE

STATION/POSITION TIME  TEMP    WIND        PRES    WAVE   SWELL
                       AIR SEA DIR/SP/G            HT/PER HT/PER
                 (UTC) (F)     (DEG/KT/KT) (MB)    (FT/S) (FT/S)
44066 TX TWR #4  1800   62 66   30/ 29/ 37 1003.7F  11/ 7
CAPE MAY NJ      1800   61 67  360/  8/ 16 1007.8F
LEWES DE         1800   60 61   10/ 25/ 27 1008.0F
15NM E FENWICK I 1800   63 66   10/ 29/ 33 1005.3F   8/ 6   2/11
OCEAN-CITY-INLET 1800   57 65  360/ 15/ 23 1006.6R
WACHAPREAGUE VA  1800   60 63  320/  6/ 12 1008.0F
THOMAS POINT MD  1800   56 64  340/ 22/ 25 1011.9F
GOOSES REEF MD   1800   57     360/ 23/ 27 1010.9S
COVE POINT MD    1800   55     350/ 29/ 32 1010.1F
SOLOMONS ISLAND  1800      65                N/A
BISHOPS HEAD MD  1800   57 60  340/ 13/ 20 1009.1S
PINEY POINT MD   1800          350/ 25/ 26   N/A
POTOMAC MD       1800   57     340/ 17/ 21 1009.6F
CAMBRIDGE MD     1800   57 62  350/ 16/ 22 1009.6F
LEWISETTA VA     1800   56 63  340/ 17/ 23 1010.3F
RAPPAHANNOCK LGT 1800          340/ 28/ 30 1009.1S
STINGRAY PT      1800   57     320/ 19/ 23 1010.3S
YORK RVR RNG VA  1800   58     340/ 23/ 27 1009.5S
YORKTOWN VA      1800   58 67  330/ 20/ 25 1010.1S
JAMESTOWN VA     1800   55     350/ 19/ 27   N/A
DOMINION TERM VA 1800   58     330/  7/ 19 1010.0R
KIPTOPEKE VA     1800      68  320/ 27/ 33   N/A
CHES BAY BRIDGE  1800   59 67  310/ 29/ 34 1008.8R
CHESAPEAKE LGHT  1700   60     330/ 24/ 26 1008.5F
WILLOUBY STN VA  1800   58     320/ 21/ 24 1008.5R
S CRANEY ISL VA  1800          290/ 14/ 26 1009.5F
CAPE HENRY BUOY  1800      69                N/A     5/ 5
1ST LANDING BUOY 1800   60     320/ 27/ 33 1008.6R
CAPE CHARLES BUO 1800      68                N/A     4/ 4   2/11
64NM E OF VA BCH 1800   60 69  310/ 16/ 21 1005.6F   6/ 7   2/11
DUCK PIER NC     1800   59 68  290/ 21/ 24 1008.3F
44100 DUCK FRF   1800      70                N/A     4/ 5
44056 DUCK FRF   1800                        N/A     3/10   2/11
OREGON INLET NC  1800   58 67  280/ 17/ 26 1009.4F
HATTERAS NC      1800   60 69  290/ 21/ 27 1011.1F
DIAMOND SHLS NC  1800   62     300/ 21/ 27 1010.4F   5/ 4   2/10
CAPE LOOKOUT NC  1700   62     310/  9/ 15 1012.6F
$$



USA.gov is the U.S. government's official web portal to all federal, state and local government web resources and services.